GW4681 Weather Reports


time (UTC)temp
C
wind
direction
speed
KPH
gust
KPH
rain 1hr
cm
rain 24hr
cm
rain mn
cm
humidity
%
barometer
mb
20260506020005 24 49 6.4 19.3 0.00 0.00 0.00 25 1008.7
20260506015504 24 74 6.4 19.3 0.00 0.00 0.00 25 1008.6
20260506015006 24 86 6.4 20.9 0.00 0.00 0.00 25 1008.6
20260506014505 24 37 8.0 24.1 0.00 0.00 0.00 25 1008.5
20260506014003 24 61 11.3 24.1 0.00 0.00 0.00 25 1008.5
20260506013504 25 47 8.0 20.9 0.00 0.00 0.00 24 1008.5
20260506013010 25 23 4.8 20.9 0.00 0.00 0.00 24 1008.5
20260506012503 25 93 6.4 20.9 0.00 0.00 0.00 25 1008.4
20260506012003 25 360 6.4 19.3 0.00 0.00 0.00 25 1008.4
20260506011514 25 110 8.0 22.5 0.00 0.00 0.00 25 1008.3
20260506011012 25 34 9.7 22.5 0.00 0.00 0.00 24 1008.3
20260506010502 25 70 11.3 22.5 0.00 0.00 0.00 24 1008.3
20260506010005 25 86 9.7 22.5 0.00 0.00 0.00 24 1008.3
20260506005503 25 20 8.0 25.7 0.00 0.00 0.00 23 1008.3
20260506005002 25 53 9.7 25.7 0.00 0.00 0.00 23 1008.3
20260506004505 25 39 12.9 25.7 0.00 0.00 0.00 23 1008.1
20260506004004 25 34 9.7 24.1 0.00 0.00 0.00 23 1008.3
20260506003504 25 82 9.7 24.1 0.00 0.00 0.00 22 1008.2
20260506003010 25 25 8.0 22.5 0.00 0.00 0.00 23 1008.3
20260506002506 25 48 12.9 25.7 0.00 0.00 0.00 22 1008.3
20260506002004 25 10 14.5 25.7 0.00 0.00 0.00 22 1008.4
20260506001512 26 31 9.7 24.1 0.00 0.00 0.00 23 1008.3
20260506001004 26 30 14.5 24.1 0.00 0.00 0.00 21 1008.4
20260506000503 26 4 11.3 22.5 0.00 0.00 0.00 21 1008.5
20260506000015 26 36 8.0 20.9 0.00 0.00 0.00 23 1008.4
20260505235507 26 27 8.0 24.1 0.00 0.00 0.00 23 1008.3
20260505235002 26 40 11.3 24.1 0.00 0.00 0.00 22 1008.4
20260505234508 26 36 9.7 27.4 0.00 0.00 0.00 21 1008.5
20260505234004 26 51 9.7 27.4 0.00 0.00 0.00 20 1008.5
20260505233505 26 39 11.3 24.1 0.00 0.00 0.00 22 1008.5
20260505233008 26 59 9.7 22.5 0.00 0.00 0.00 23 1008.5
20260505232503 26 40 8.0 24.1 0.00 0.00 0.00 23 1008.6
20260505232003 26 71 12.9 24.1 0.00 0.00 0.00 24 1008.6
20260505231510 26 30 8.0 22.5 0.00 0.00 0.00 23 1008.7
20260505231002 26 49 14.5 25.7 0.00 0.00 0.00 23 1008.7
20260505230502 26 24 9.7 25.7 0.00 0.00 0.00 22 1008.6
20260505230014 26 40 12.9 22.5 0.00 0.00 0.00 22 1008.8
20260505225506 26 359 6.4 14.5 0.00 0.00 0.00 26 1008.7
20260505225008 25 324 8.0 24.1 0.00 0.00 0.00 25 1008.7
20260505224519 25 13 11.3 24.1 0.00 0.00 0.00 25 1008.9
20260505224007 25 50 16.1 27.4 0.00 0.00 0.00 24 1008.8
20260505223502 25 359 9.7 27.4 0.00 0.00 0.00 24 1008.9
20260505223005 25 3 14.5 27.4 0.00 0.00 0.00 24 1008.9
20260505222504 25 8 9.7 27.4 0.00 0.00 0.00 24 1008.9
20260505222003 25 37 11.3 27.4 0.00 0.00 0.00 25 1008.9
20260505221505 25 8 9.7 24.1 0.00 0.00 0.00 23 1009.0
20260505221003 25 71 11.3 24.1 0.00 0.00 0.00 23 1009.0
20260505220502 25 39 11.3 25.7 0.00 0.00 0.00 23 1009.1
20260505220022 25 1 8.0 27.4 0.00 0.00 0.00 24 1009.1
20260505215503 25 59 4.8 27.4 0.00 0.00 0.00 25 1009.2
20260505215003 25 22 4.8 22.5 0.00 0.00 0.00 25 1009.3
20260505214523 25 7 6.4 22.5 0.00 0.00 0.00 25 1009.4
20260505214007 25 34 11.3 22.5 0.00 0.00 0.00 25 1009.5
20260505213508 25 4 4.8 16.1 0.00 0.00 0.00 27 1009.5
20260505213019 25 41 4.8 22.5 0.00 0.00 0.00 27 1009.6
20260505212510 24 68 9.7 25.7 0.00 0.00 0.00 25 1009.7
20260505212005 24 44 12.9 25.7 0.00 0.00 0.00 25 1009.8
20260505211505 24 7 9.7 16.1 0.00 0.00 0.00 28 1009.8
20260505211003 25 21 4.8 17.7 0.00 0.00 0.00 27 1009.9
20260505210504 24 27 9.7 17.7 0.00 0.00 0.00 29 1010.0
20260505210007 24 10 6.4 14.5 0.00 0.00 0.00 28 1010.0
20260505205507 24 90 8.0 19.3 0.00 0.00 0.00 28 1010.0
20260505205006 24 34 6.4 19.3 0.00 0.00 0.00 29 1010.0
20260505204512 24 1 9.7 22.5 0.00 0.00 0.00 31 1010.1
20260505204009 23 54 8.0 22.5 0.00 0.00 0.00 28 1010.1
20260505203507 23 61 6.4 12.9 0.00 0.00 0.00 30 1010.2
20260505203020 23 49 6.4 19.3 0.00 0.00 0.00 29 1010.3
20260505202508 23 322 4.8 19.3 0.00 0.00 0.00 28 1010.3
20260505202010 23 349 9.7 17.7 0.00 0.00 0.00 29 1010.4
20260505201525 23 23 6.4 14.5 0.00 0.00 0.00 31 1010.3
20260505201007 23 1 6.4 17.7 0.00 0.00 0.00 30 1010.4
20260505200504 22 1 6.4 17.7 0.00 0.00 0.00 32 1010.5
20260505200008 23 1 6.4 14.5 0.00 0.00 0.00 31 1010.5
20260505195504 22 12 8.0 14.5 0.00 0.00 0.00 32 1010.5
20260505195003 22 349 4.8 12.9 0.00 0.00 0.00 30 1010.4
20260505194527 22 360 4.8 17.7 0.00 0.00 0.00 30 1010.6
20260505194004 22 6 8.0 17.7 0.00 0.00 0.00 30 1010.6
20260505193504 22 323 4.8 16.1 0.00 0.00 0.00 31 1010.6
20260505193032 22 1 6.4 16.1 0.00 0.00 0.00 32 1010.7
20260505192507 22 49 6.4 16.1 0.00 0.00 0.00 30 1010.7
20260505192007 22 310 4.8 14.5 0.00 0.00 0.00 31 1010.8
20260505191520 22 359 8.0 17.7 0.00 0.00 0.00 29 1010.9
20260505191009 22 304 8.0 17.7 0.00 0.00 0.00 30 1011.0
20260505190510 22 312 6.4 11.3 0.00 0.00 0.00 30 1011.0
20260505190026 22 343 6.4 16.1 0.00 0.00 0.00 29 1011.2
20260505185509 21 221 6.4 16.1 0.00 0.00 0.00 30 1011.2
20260505185003 21 284 6.4 16.1 0.00 0.00 0.00 30 1011.2
20260505184507 21 327 3.2 16.1 0.00 0.00 0.00 34 1011.2
20260505184004 21 288 4.8 16.1 0.00 0.00 0.00 30 1011.2
20260505183503 21 297 3.2 12.9 0.00 0.00 0.00 31 1011.2
20260505183015 21 224 6.4 12.9 0.00 0.00 0.00 31 1011.3
20260505182504 21 248 3.2 8.0 0.00 0.00 0.00 30 1011.4
20260505182006 21 233 1.6 8.0 0.00 0.00 0.00 32 1011.4
20260505181517 21 359 3.2 8.0 0.00 0.00 0.00 31 1011.4
20260505181008 21 359 3.2 6.4 0.00 0.00 0.00 31 1011.4
20260505180509 21 290 1.6 6.4 0.00 0.00 0.00 33 1011.4
20260505180040 21 67 0.0 11.3 0.00 0.00 0.00 32 1011.5
20260505175506 20 126 0.0 11.3 0.00 0.00 0.00 33 1011.5
20260505175007 20 239 4.8 9.7 0.00 0.00 0.00 33 1011.5
20260505174535 20 151 4.8 14.5 0.00 0.00 0.00 34 1011.5
20260505174008 20 252 8.0 14.5 0.00 0.00 0.00 32 1011.5
20260505173504 20 259 1.6 14.5 0.00 0.00 0.00 33 1011.4
20260505173011 20 275 4.8 9.7 0.00 0.00 0.00 33 1011.4
20260505172503 20 318 0.0 16.1 0.00 0.00 0.00 33 1011.3
20260505172004 20 333 6.4 16.1 0.00 0.00 0.00 34 1011.4
20260505171518 20 258 3.2 14.5 0.00 0.00 0.00 35 1011.3
20260505171006 20 328 4.8 14.5 0.00 0.00 0.00 33 1011.3
20260505170507 20 221 6.4 11.3 0.00 0.00 0.00 34 1011.3
20260505170026 20 238 3.2 9.7 0.00 0.00 0.00 37 1011.2
20260505165507 19 359 3.2 11.3 0.00 0.00 0.00 35 1011.2
20260505165007 19 275 3.2 17.7 0.00 0.00 0.00 34 1011.2
20260505164504 19 290 4.8 17.7 0.00 0.00 0.00 34 1011.2
20260505164007 19 229 1.6 14.5 0.00 0.00 0.00 35 1011.2
20260505163503 18 278 4.8 14.5 0.00 0.00 0.00 35 1011.2
20260505163009 18 218 8.0 14.5 0.00 0.00 0.00 34 1011.2
20260505162504 18 223 6.4 16.1 0.00 0.00 0.00 35 1011.2
20260505162003 18 274 8.0 19.3 0.00 0.00 0.00 34 1011.3
20260505161516 18 226 8.0 19.3 0.00 0.00 0.00 35 1011.2
20260505161005 18 184 6.4 20.9 0.00 0.00 0.00 34 1011.1
20260505160505 18 250 8.0 20.9 0.00 0.00 0.00 35 1011.1
20260505153009 18 212 8.0 24.1 0.00 0.00 0.00 37 1010.9
20260505152504 18 239 9.7 24.1 0.00 0.00 0.00 36 1010.9
20260505152006 18 184 9.7 22.5 0.00 0.00 0.00 36 1010.9
20260505151511 18 314 9.7 20.9 0.00 0.00 0.00 39 1010.9
20260505151004 17 247 8.0 20.9 0.00 0.00 0.00 44 1010.9
20260505150505 17 238 8.0 17.7 0.00 0.00 0.00 47 1010.8
20260505140505 13 213 4.8 14.5 0.00 0.00 0.00 59 1010.0
20260505125004 11 318 0.0 0.0 0.00 0.00 0.00 63 1008.7
20260505124519 12 297 0.0 1.6 0.00 0.00 0.00 61 1008.6
20260505124006 12 220 0.0 4.8 0.00 0.00 0.00 61 1008.6
20260505123508 12 219 1.6 4.8 0.00 0.00 0.00 61 1008.6
20260505123023 12 208 0.0 4.8 0.00 0.00 0.00 60 1008.6
20260505122508 12 290 0.0 3.2 0.00 0.00 0.00 60 1008.3
20260505122008 12 316 0.0 4.8 0.00 0.00 0.00 60 1008.1
20260505121527 12 312 1.6 4.8 0.00 0.00 0.00 59 1008.0
20260505121008 12 304 3.2 4.8 0.00 0.00 0.00 59 1007.9
20260505120508 12 313 0.0 4.8 0.00 0.00 0.00 58 1007.7
20260505120030 12 354 1.6 4.8 0.00 0.00 0.00 58 1007.7
20260505115510 12 354 3.2 4.8 0.00 0.00 0.00 58 1007.7
20260505115007 12 330 1.6 4.8 0.00 0.00 0.00 57 1007.6
20260505114527 13 330 1.6 4.8 0.00 0.00 0.00 56 1007.6
20260505114005 13 330 1.6 4.8 0.00 0.00 0.00 56 1007.5
20260505113504 12 300 1.6 3.2 0.00 0.00 0.00 56 1007.6
20260505113028 12 276 0.0 3.2 0.00 0.00 0.00 57 1007.6
20260505112507 12 266 0.0 3.2 0.00 0.00 0.00 57 1007.6
20260505112011 12 266 0.0 4.8 0.00 0.00 0.00 56 1007.6
20260505111539 13 266 1.6 4.8 0.00 0.00 0.00 56 1007.4
20260505111007 13 350 0.0 3.2 0.00 0.00 0.00 55 1007.3
20260505110508 13 350 0.0 1.6 0.00 0.00 0.00 54 1007.2
20260505102006 13 18 3.2 8.0 0.00 0.00 0.00 52 1006.5
20260505101522 13 4 3.2 9.7 0.00 0.00 0.00 52 1006.5
20260505101009 13 18 4.8 9.7 0.00 0.00 0.00 52 1006.4
20260505100503 13 11 4.8 8.0 0.00 0.00 0.00 52 1006.3
20260505100004 13 1 4.8 8.0 0.00 0.00 0.00 52 1006.4
20260505095504 13 5 4.8 8.0 0.00 0.00 0.00 52 1006.4
20260505095003 13 4 3.2 9.7 0.00 0.00 0.00 52 1006.4
20260505094510 14 354 4.8 11.3 0.00 0.00 0.00 52 1006.5
20260505094005 14 3 3.2 11.3 0.00 0.00 0.00 51 1006.4
20260505093503 14 360 3.2 9.7 0.00 0.00 0.00 50 1006.3
20260505093014 14 360 4.8 12.9 0.00 0.00 0.00 50 1006.2
20260505092505 14 4 6.4 12.9 0.00 0.00 0.00 50 1006.2
20260505092006 14 8 6.4 12.9 0.00 0.00 0.00 50 1006.1
20260505091519 14 6 6.4 12.9 0.00 0.00 0.00 50 1006.1
20260505091007 14 354 6.4 12.9 0.00 0.00 0.00 49 1006.1
20260505090508 14 26 4.8 11.3 0.00 0.00 0.00 49 1006.1
20260505090030 14 360 4.8 11.3 0.00 0.00 0.00 49 1006.1
20260505085508 14 342 3.2 8.0 0.00 0.00 0.00 49 1006.1
20260505085005 15 340 3.2 9.7 0.00 0.00 0.00 48 1006.2
20260505084507 15 335 4.8 9.7 0.00 0.00 0.00 48 1006.1
20260505084003 15 307 4.8 9.7 0.00 0.00 0.00 47 1006.2
20260505083503 15 283 4.8 9.7 0.00 0.00 0.00 46 1006.1
20260505083014 15 324 3.2 9.7 0.00 0.00 0.00 46 1006.1
20260505082506 16 290 4.8 12.9 0.00 0.00 0.00 44 1006.0
20260505082003 16 330 4.8 12.9 0.00 0.00 0.00 43 1006.0
20260505081522 16 340 6.4 16.1 0.00 0.00 0.00 42 1005.9
20260505081009 16 347 6.4 16.1 0.00 0.00 0.00 43 1005.9
20260505080508 16 4 6.4 16.1 0.00 0.00 0.00 43 1005.9
20260505080033 16 1 6.4 14.5 0.00 0.00 0.00 42 1005.9
20260505075506 16 1 6.4 12.9 0.00 0.00 0.00 42 1005.9
20260505075012 17 8 4.8 12.9 0.00 0.00 0.00 40 1005.9
20260505074527 17 1 6.4 16.1 0.00 0.00 0.00 39 1005.8
20260505074008 17 349 6.4 16.1 0.00 0.00 0.00 38 1005.8
20260505073504 17 31 8.0 19.3 0.00 0.00 0.00 38 1005.9
20260505073012 17 359 8.0 19.3 0.00 0.00 0.00 38 1005.8
20260505072504 17 9 8.0 16.1 0.00 0.00 0.00 38 1005.8
20260505072004 17 44 8.0 16.1 0.00 0.00 0.00 39 1005.7
20260505071511 17 30 8.0 12.9 0.00 0.00 0.00 39 1005.7
20260505071011 17 17 6.4 14.5 0.00 0.00 0.00 40 1005.7
20260505070505 17 11 6.4 14.5 0.00 0.00 0.00 39 1005.7
20260505070018 17 30 4.8 14.5 0.00 0.00 0.00 39 1005.7
20260505065505 17 24 4.8 12.9 0.00 0.00 0.00 39 1005.7
20260505065007 18 2 4.8 12.9 0.00 0.00 0.00 39 1005.6
20260505064525 18 342 6.4 12.9 0.00 0.00 0.00 38 1005.5
20260505064009 18 15 6.4 14.5 0.00 0.00 0.00 38 1005.5
20260505063508 18 359 4.8 14.5 0.00 0.00 0.00 38 1005.4
20260505063024 18 13 6.4 14.5 0.00 0.00 0.00 38 1005.4
20260505062512 18 52 6.4 14.5 0.00 0.00 0.00 38 1005.3
20260505062012 18 14 6.4 14.5 0.00 0.00 0.00 38 1005.2
20260505061514 18 37 6.4 14.5 0.00 0.00 0.00 37 1005.2
20260505061009 18 359 8.0 17.7 0.00 0.00 0.00 37 1005.2
20260505060504 18 11 9.7 17.7 0.00 0.00 0.00 37 1005.2
20260505060015 18 22 9.7 17.7 0.00 0.00 0.00 38 1005.1
20260505055506 18 358 9.7 19.3 0.00 0.00 0.00 38 1005.1
20260505055007 18 19 6.4 19.3 0.00 0.00 0.00 39 1005.1
20260505054524 18 6 9.7 22.5 0.00 0.00 0.00 39 1005.1
20260505054012 18 11 9.7 22.5 0.00 0.00 0.00 39 1005.1
20260505053512 18 31 9.7 17.7 0.00 0.00 0.00 40 1005.0
20260505053025 18 22 9.7 17.7 0.00 0.00 0.00 40 1005.0
20260505052511 18 23 9.7 17.7 0.00 0.00 0.00 41 1005.1
20260505052008 18 1 9.7 16.1 0.00 0.00 0.00 41 1005.1
20260505051529 18 13 8.0 14.5 0.00 0.00 0.00 42 1005.1
20260505051010 18 1 6.4 11.3 0.00 0.00 0.00 42 1005.2
20260505050513 18 18 4.8 12.9 0.00 0.00 0.00 42 1005.1
20260505041532 20 4 3.2 8.0 0.00 0.00 0.00 39 1004.9
20260505041007 20 34 4.8 11.3 0.00 0.00 0.00 38 1004.8
20260505040510 21 4 3.2 12.9 0.00 0.00 0.00 37 1004.8
20260505040030 21 31 4.8 12.9 0.00 0.00 0.00 36 1004.7
20260505035507 21 27 4.8 16.1 0.00 0.00 0.00 35 1004.7
20260505035009 21 43 8.0 16.1 0.00 0.00 0.00 35 1004.7
20260505034516 21 6 8.0 14.5 0.00 0.00 0.00 35 1004.6
20260505034007 21 17 6.4 12.9 0.00 0.00 0.00 36 1004.6
20260505033510 21 6 6.4 12.9 0.00 0.00 0.00 36 1004.6
20260505033022 21 52 6.4 12.9 0.00 0.00 0.00 35 1004.5
20260505032503 21 11 4.8 11.3 0.00 0.00 0.00 35 1004.5
20260505032004 22 18 6.4 11.3 0.00 0.00 0.00 34 1004.5
20260505031505 22 9 4.8 11.3 0.00 0.00 0.00 33 1004.3
20260505031003 22 13 3.2 12.9 0.00 0.00 0.00 33 1004.2
20260505030504 22 46 6.4 12.9 0.00 0.00 0.00 32 1004.1
20260505030008 23 22 4.8 12.9 0.00 0.00 0.00 31 1004.1
20260505025503 23 359 4.8 12.9 0.00 0.00 0.00 31 1004.0
20260505025004 23 36 6.4 12.9 0.00 0.00 0.00 30 1004.0
20260505024531 23 37 6.4 11.3 0.00 0.00 0.00 30 1004.0
20260505024005 23 42 6.4 14.5 0.00 0.00 0.00 29 1003.8
20260505023504 24 25 6.4 14.5 0.00 0.00 0.00 29 1003.8
20260505023010 24 51 6.4 14.5 0.00 0.00 0.00 28 1003.8
20260505022506 24 30 6.4 14.5 0.00 0.00 0.00 28 1003.9
20260505022006 25 47 6.4 14.5 0.00 0.00 0.00 27 1003.8
20260505021503 25 13 8.0 16.1 0.00 0.00 0.00 27 1003.7
20260505021004 25 24 8.0 17.7 0.00 0.00 0.00 26 1003.7
20260505020502 25 29 6.4 17.7 0.00 0.00 0.00 26 1003.8